FW9947 Weather Reports


time (UTC)temp
C
wind
direction
speed
KPH
gust
KPH
rain 1hr
cm
rain 24hr
cm
rain mn
cm
humidity
%
barometer
mb
20260509185732 13 12 0.0 0.0 0.00 0.00 0.00 69 1027.3
20260509185229 13 16 1.6 1.6 0.00 0.00 0.00 68 1027.3
20260509184726 13 15 3.2 3.2 0.00 0.00 0.00 69 1027.3
20260509184224 13 21 1.6 1.6 0.00 0.00 0.00 69 1027.2
20260509183720 13 8 0.0 1.6 0.00 0.00 0.00 69 1026.8
20260509183215 13 8 0.0 0.0 0.00 0.00 0.00 68 1027.0
20260509182711 14 8 0.0 0.0 0.00 0.00 0.00 66 1026.8
20260509182209 15 2 1.6 1.6 0.00 0.00 0.00 65 1027.0
20260509181706 15 357 3.2 3.2 0.00 0.00 0.00 64 1026.8
20260509181203 14 355 4.8 4.8 0.00 0.00 0.00 65 1027.1
20260509180700 14 4 1.6 1.6 0.00 0.00 0.00 65 1026.7
20260509180156 14 8 3.2 3.2 0.00 0.00 0.00 65 1026.8
20260509175653 13 7 0.0 0.0 0.00 0.00 0.00 67 1026.7
20260509175149 13 6 0.0 0.0 0.00 0.00 0.00 67 1026.7
20260509174645 14 6 0.0 0.0 0.00 0.00 0.00 66 1027.0
20260509174140 14 5 0.0 0.0 0.00 0.00 0.00 67 1026.7
20260509173636 14 5 0.0 0.0 0.00 0.00 0.00 67 1026.7
20260509173132 13 0 0.0 0.0 0.00 0.00 0.00 68 1026.7
20260509172629 14 356 0.0 0.0 0.00 0.00 0.00 67 1027.1
20260509172125 15 356 0.0 0.0 0.00 0.00 0.00 64 1027.0
20260509171621 15 347 0.0 0.0 0.00 0.00 0.00 64 1026.7
20260509171117 14 346 0.0 0.0 0.00 0.00 0.00 65 1026.6
20260509170614 14 346 0.0 0.0 0.00 0.00 0.00 65 1026.8
20260509170110 14 346 0.0 0.0 0.00 0.00 0.00 66 1026.6
20260509165608 14 343 0.0 1.6 0.00 0.00 0.00 67 1026.7
20260509165104 15 342 0.0 0.0 0.00 0.00 0.00 65 1026.7
20260509164600 15 342 0.0 0.0 0.00 0.00 0.00 63 1026.7
20260509164056 15 341 0.0 0.0 0.00 0.00 0.00 62 1026.6
20260509163554 16 340 0.0 1.6 0.00 0.00 0.00 61 1026.6
20260509163054 16 340 1.6 1.6 0.00 0.00 0.00 60 1026.5
20260509162552 16 341 1.6 1.6 0.00 0.00 0.00 60 1026.5
20260509162048 16 341 1.6 1.6 0.00 0.00 0.00 61 1026.2
20260509161544 16 341 1.6 1.6 0.00 0.00 0.00 61 1026.4
20260509161039 16 343 0.0 0.0 0.00 0.00 0.00 61 1026.4
20260509160535 16 342 1.6 3.2 0.00 0.00 0.00 61 1026.2
20260509160031 15 343 0.0 0.0 0.00 0.00 0.00 62 1026.3
20260509155527 15 343 0.0 0.0 0.00 0.00 0.00 62 1026.3
20260509155023 16 343 0.0 0.0 0.00 0.00 0.00 62 1026.4
20260509154520 16 338 0.0 1.6 0.00 0.00 0.00 61 1026.4
20260509154018 16 323 1.6 1.6 0.00 0.00 0.00 60 1026.2
20260509153514 16 342 0.0 0.0 0.00 0.00 0.00 60 1026.2
20260509153011 16 341 3.2 3.2 0.00 0.00 0.00 60 1026.2
20260509152507 16 336 3.2 3.2 0.00 0.00 0.00 59 1025.9
20260509152004 17 332 3.2 3.2 0.00 0.00 0.00 58 1026.3
20260509151500 17 340 3.2 4.8 0.00 0.00 0.00 58 1026.2
20260509150959 17 351 4.8 8.0 0.00 0.00 0.00 57 1026.2
20260509150455 17 1 4.8 8.0 0.00 0.00 0.00 56 1026.0
20260509145953 17 340 8.0 9.7 0.00 0.00 0.00 56 1026.0
20260509145449 17 1 4.8 4.8 0.00 0.00 0.00 55 1026.0
20260509144944 18 0 6.4 8.0 0.00 0.00 0.00 55 1026.0
20260509144441 18 342 4.8 8.0 0.00 0.00 0.00 54 1025.9
20260509143938 18 350 8.0 11.3 0.00 0.00 0.00 53 1026.2
20260509143435 18 16 6.4 8.0 0.00 0.00 0.00 52 1026.0
20260509142932 19 328 6.4 8.0 0.00 0.00 0.00 52 1026.0
20260509142428 19 5 6.4 9.7 0.00 0.00 0.00 51 1025.9
20260509141924 19 1 11.3 12.9 0.00 0.00 0.00 51 1026.0
20260509141421 18 24 6.4 8.0 0.00 0.00 0.00 52 1025.9
20260509140918 19 311 4.8 8.0 0.00 0.00 0.00 52 1025.9
20260509140414 18 347 6.4 8.0 0.00 0.00 0.00 52 1025.9
20260509135913 19 315 6.4 9.7 0.00 0.00 0.00 51 1025.8
20260509135410 19 323 6.4 8.0 0.00 0.00 0.00 52 1025.8
20260509134907 19 336 4.8 8.0 0.00 0.00 0.00 52 1026.0
20260509134404 20 306 4.8 4.8 0.00 0.00 0.00 50 1026.0
20260509133901 20 300 12.9 16.1 0.00 0.00 0.00 49 1026.0
20260509133358 19 339 8.0 11.3 0.00 0.00 0.00 50 1026.0
20260509132856 20 323 8.0 12.9 0.00 0.00 0.00 49 1025.9
20260509132354 20 327 6.4 9.7 0.00 0.00 0.00 49 1025.9
20260509131851 20 322 3.2 4.8 0.00 0.00 0.00 50 1025.9
20260509131348 20 317 8.0 11.3 0.00 0.00 0.00 50 1025.9
20260509130845 20 332 11.3 12.9 0.00 0.00 0.00 50 1026.3
20260509130340 20 339 4.8 4.8 0.00 0.00 0.00 49 1026.0
20260509125837 20 322 6.4 12.9 0.00 0.00 0.00 49 1026.0
20260509125333 20 341 4.8 4.8 0.00 0.00 0.00 49 1026.3
20260509124829 20 342 6.4 8.0 0.00 0.00 0.00 49 1026.0
20260509124327 20 336 12.9 16.1 0.00 0.00 0.00 49 1026.3
20260509123825 20 289 8.0 9.7 0.00 0.00 0.00 50 1026.4
20260509123322 20 321 8.0 9.7 0.00 0.00 0.00 50 1026.4
20260509122817 20 342 8.0 9.7 0.00 0.00 0.00 49 1026.2
20260509122314 19 352 9.7 12.9 0.00 0.00 0.00 50 1026.3
20260509121811 19 352 11.3 14.5 0.00 0.00 0.00 50 1026.5
20260509121308 20 352 12.9 16.1 0.00 0.00 0.00 49 1026.3
20260509120807 19 340 14.5 17.7 0.00 0.00 0.00 50 1026.4
20260509120304 20 350 11.3 12.9 0.00 0.00 0.00 49 1026.5
20260509115802 20 344 8.0 11.3 0.00 0.00 0.00 49 1026.5
20260509115259 20 347 11.3 12.9 0.00 0.00 0.00 49 1026.5
20260509114756 20 334 3.2 3.2 0.00 0.00 0.00 50 1026.7
20260509114255 19 351 11.3 12.9 0.00 0.00 0.00 49 1026.7
20260509113754 19 342 11.3 14.5 0.00 0.00 0.00 50 1026.8
20260509113250 19 334 9.7 12.9 0.00 0.00 0.00 50 1026.8
20260509112747 20 346 8.0 11.3 0.00 0.00 0.00 49 1027.0
20260509112244 19 352 9.7 12.9 0.00 0.00 0.00 50 1026.7
20260509111742 19 323 8.0 11.3 0.00 0.00 0.00 50 1027.0
20260509111238 18 318 8.0 12.9 0.00 0.00 0.00 50 1027.0
20260509110735 18 333 9.7 12.9 0.00 0.00 0.00 51 1026.8
20260509110232 19 331 6.4 8.0 0.00 0.00 0.00 50 1027.2
20260509105730 19 330 6.4 8.0 0.00 0.00 0.00 50 1027.3
20260509105228 18 328 12.9 16.1 0.00 0.00 0.00 51 1027.4
20260509104724 18 306 4.8 8.0 0.00 0.00 0.00 51 1027.3
20260509104221 18 306 3.2 3.2 0.00 0.00 0.00 51 1027.5
20260509103720 18 310 8.0 11.3 0.00 0.00 0.00 50 1027.5
20260509103216 18 322 14.5 17.7 0.00 0.00 0.00 50 1027.7
20260509102715 18 331 14.5 22.5 0.00 0.00 0.00 49 1027.8
20260509102211 18 329 8.0 9.7 0.00 0.00 0.00 50 1027.9
20260509101707 18 308 6.4 9.7 0.00 0.00 0.00 51 1028.0
20260509101204 18 312 9.7 11.3 0.00 0.00 0.00 50 1028.1
20260509100701 18 342 4.8 8.0 0.00 0.00 0.00 51 1028.2
20260509100158 17 345 4.8 8.0 0.00 0.00 0.00 51 1028.3
20260509095655 18 338 8.0 11.3 0.00 0.00 0.00 52 1028.6
20260509095153 17 339 4.8 8.0 0.00 0.00 0.00 53 1028.7
20260509094649 17 344 8.0 11.3 0.00 0.00 0.00 54 1028.9
20260509094146 17 333 11.3 14.5 0.00 0.00 0.00 55 1028.9
20260509093644 16 329 3.2 3.2 0.00 0.00 0.00 57 1028.9
20260509093141 17 319 6.4 9.7 0.00 0.00 0.00 56 1028.9
20260509092639 17 340 8.0 14.5 0.00 0.00 0.00 56 1029.0
20260509092137 17 7 11.3 12.9 0.00 0.00 0.00 56 1029.2
20260509091635 17 12 9.7 12.9 0.00 0.00 0.00 58 1029.3
20260509091131 16 14 4.8 8.0 0.00 0.00 0.00 60 1029.3
20260509090629 16 16 8.0 9.7 0.00 0.00 0.00 62 1029.0
20260509090126 16 25 1.6 3.2 0.00 0.00 0.00 62 1029.5
20260509085623 15 26 1.6 3.2 0.00 0.00 0.00 64 1029.4
20260509085119 16 75 6.4 11.3 0.00 0.00 0.00 62 1029.5
20260509084617 15 78 3.2 3.2 0.00 0.00 0.00 64 1029.6
20260509084113 15 78 8.0 9.7 0.00 0.00 0.00 61 1029.6
20260509083611 16 81 6.4 8.0 0.00 0.00 0.00 62 1029.4
20260509083107 16 82 3.2 3.2 0.00 0.00 0.00 61 1030.0
20260509082605 15 84 3.2 3.2 0.00 0.00 0.00 61 1029.9
20260509082101 15 84 1.6 3.2 0.00 0.00 0.00 62 1030.0
20260509081559 15 89 8.0 9.7 0.00 0.00 0.00 63 1029.9
20260509081055 14 90 0.0 1.6 0.00 0.00 0.00 64 1030.1
20260509080554 14 91 4.8 4.8 0.00 0.00 0.00 64 1030.0
20260509080051 13 93 3.2 3.2 0.00 0.00 0.00 65 1030.1
20260509075549 14 96 8.0 9.7 0.00 0.00 0.00 62 1030.0
20260509075047 13 98 1.6 3.2 0.00 0.00 0.00 65 1030.1
20260509074543 14 99 9.7 11.3 0.00 0.00 0.00 64 1030.1
20260509074040 14 100 1.6 1.6 0.00 0.00 0.00 65 1030.2
20260509073536 13 100 4.8 4.8 0.00 0.00 0.00 64 1030.2
20260509073033 13 100 6.4 8.0 0.00 0.00 0.00 65 1030.1
20260509072529 13 101 4.8 4.8 0.00 0.00 0.00 65 1030.1
20260509072026 13 101 1.6 3.2 0.00 0.00 0.00 66 1029.9
20260509071523 12 102 1.6 3.2 0.00 0.00 0.00 68 1029.7
20260509071020 13 102 4.8 4.8 0.00 0.00 0.00 67 1030.0
20260509070518 13 102 4.8 4.8 0.00 0.00 0.00 66 1029.9
20260509070014 12 102 3.2 3.2 0.00 0.00 0.00 66 1029.7
20260509065509 12 102 3.2 3.2 0.00 0.00 0.00 67 1029.6
20260509065006 12 103 3.2 3.2 0.00 0.00 0.00 68 1029.5
20260509064503 12 102 0.0 0.0 0.00 0.00 0.00 68 1029.5
20260509064001 13 103 0.0 0.0 0.00 0.00 0.00 68 1029.4
20260509063456 11 103 0.0 0.0 0.00 0.00 0.00 72 1029.3
20260509062954 11 103 1.6 1.6 0.00 0.00 0.00 74 1029.3
20260509062451 11 103 1.6 1.6 0.00 0.00 0.00 74 1029.0
20260509061949 11 103 1.6 3.2 0.00 0.00 0.00 76 1028.9
20260509061446 9 103 1.6 1.6 0.00 0.00 0.00 79 1029.0
20260509060943 9 103 0.0 1.6 0.00 0.00 0.00 82 1029.0
20260509060440 8 103 0.0 1.6 0.00 0.00 0.00 82 1029.0
20260509055935 8 103 0.0 0.0 0.00 0.00 0.00 82 1029.0
20260509055431 8 112 0.0 0.0 0.00 0.00 0.00 83 1028.9
20260509054928 8 114 1.6 1.6 0.00 0.00 0.00 82 1028.7
20260509054424 8 122 1.6 1.6 0.00 0.00 0.00 83 1028.7
20260509053923 8 117 1.6 1.6 0.00 0.00 0.00 82 1028.8
20260509053420 7 123 1.6 3.2 0.00 0.00 0.00 83 1028.5
20260509052918 7 124 1.6 1.6 0.00 0.00 0.00 84 1028.7
20260509052415 7 116 1.6 3.2 0.00 0.00 0.00 85 1028.5
20260509051913 7 110 1.6 1.6 0.00 0.00 0.00 84 1028.7
20260509051411 7 113 1.6 1.6 0.00 0.00 0.00 84 1028.5
20260509050907 6 121 1.6 1.6 0.00 0.00 0.00 84 1028.5
20260509050404 6 125 1.6 1.6 0.00 0.00 0.00 86 1028.7
20260509045901 6 122 3.2 3.2 0.00 0.00 0.00 86 1028.5
20260509045357 6 133 3.2 3.2 0.00 0.00 0.00 87 1028.5
20260509044855 6 127 3.2 3.2 0.00 0.00 0.00 87 1028.5
20260509044353 6 142 1.6 3.2 0.00 0.00 0.00 86 1028.2
20260509043849 6 133 3.2 3.2 0.00 0.00 0.00 85 1028.3
20260509043345 6 123 1.6 3.2 0.00 0.00 0.00 85 1028.0
20260509042841 6 130 3.2 3.2 0.00 0.00 0.00 84 1028.5
20260509042337 6 119 1.6 3.2 0.00 0.00 0.00 84 1028.1
20260509041834 6 125 1.6 1.6 0.00 0.00 0.00 83 1028.1
20260509041331 6 123 1.6 1.6 0.00 0.00 0.00 83 1028.1
20260509040829 6 131 3.2 3.2 0.00 0.00 0.00 84 1027.9
20260509040327 6 114 1.6 3.2 0.00 0.00 0.00 85 1027.9
20260509035823 6 123 1.6 3.2 0.00 0.00 0.00 85 1028.1
20260509035321 6 116 1.6 1.6 0.00 0.00 0.00 85 1028.1
20260509034817 6 126 3.2 3.2 0.00 0.00 0.00 84 1027.9
20260509034315 6 126 3.2 3.2 0.00 0.00 0.00 83 1027.9
20260509033811 6 123 3.2 3.2 0.00 0.00 0.00 84 1027.9
20260509033309 6 136 3.2 3.2 0.00 0.00 0.00 84 1027.9
20260509032805 6 142 4.8 4.8 0.00 0.00 0.00 86 1028.1
20260509032306 6 146 3.2 3.2 0.00 0.00 0.00 88 1028.0
20260509031800 5 129 4.8 4.8 0.00 0.00 0.00 90 1028.0
20260509031257 5 139 3.2 4.8 0.00 0.00 0.00 91 1027.7
20260509030755 5 135 3.2 3.2 0.00 0.00 0.00 92 1028.0
20260509030253 5 127 3.2 3.2 0.00 0.00 0.00 92 1027.8
20260509025749 5 108 1.6 3.2 0.00 0.00 0.00 92 1027.8
20260509025244 5 126 3.2 3.2 0.00 0.00 0.00 91 1027.8
20260509024740 5 102 1.6 1.6 0.00 0.00 0.00 90 1027.8
20260509024236 5 103 1.6 1.6 0.00 0.00 0.00 90 1027.7
20260509023734 5 110 1.6 1.6 0.00 0.00 0.00 90 1027.7
20260509023231 5 124 4.8 4.8 0.00 0.00 0.00 91 1027.7
20260509022727 5 137 3.2 3.2 0.00 0.00 0.00 91 1027.8
20260509022225 5 117 3.2 3.2 0.00 0.00 0.00 91 1027.5
20260509021721 5 130 3.2 3.2 0.00 0.00 0.00 91 1027.8
20260509021219 5 121 1.6 1.6 0.00 0.00 0.00 89 1027.9
20260509020717 6 121 3.2 3.2 0.00 0.00 0.00 88 1027.9
20260509020213 6 116 3.2 3.2 0.00 0.00 0.00 85 1027.8
20260509015712 6 117 1.6 3.2 0.00 0.00 0.00 84 1028.0
20260509015210 6 134 3.2 3.2 0.00 0.00 0.00 85 1027.9
20260509014706 6 131 3.2 3.2 0.00 0.00 0.00 86 1027.9
20260509014203 6 135 3.2 3.2 0.00 0.00 0.00 86 1027.8
20260509013659 6 126 3.2 3.2 0.00 0.00 0.00 85 1027.9
20260509013155 6 134 3.2 3.2 0.00 0.00 0.00 85 1027.8
20260509012652 6 126 3.2 3.2 0.00 0.00 0.00 86 1027.7
20260509012149 6 125 3.2 3.2 0.00 0.00 0.00 86 1028.1
20260509011647 6 134 3.2 3.2 0.00 0.00 0.00 86 1027.9
20260509011144 6 154 3.2 3.2 0.00 0.00 0.00 87 1028.0
20260509010641 7 128 3.2 3.2 0.00 0.00 0.00 85 1027.9
20260509010137 7 125 3.2 3.2 0.00 0.00 0.00 84 1028.1
20260509005635 7 132 3.2 3.2 0.00 0.00 0.00 85 1028.1
20260509005131 7 126 3.2 3.2 0.00 0.00 0.00 86 1027.9
20260509004627 6 137 3.2 3.2 0.00 0.00 0.00 87 1027.9
20260509004124 6 130 3.2 3.2 0.00 0.00 0.00 86 1027.9
20260509003623 6 124 1.6 3.2 0.00 0.00 0.00 87 1028.0
20260509003120 6 118 1.6 3.2 0.00 0.00 0.00 88 1028.1
20260509002617 6 130 3.2 3.2 0.00 0.00 0.00 88 1028.0
20260509002114 6 124 1.6 3.2 0.00 0.00 0.00 86 1028.2
20260509001612 6 127 3.2 3.2 0.00 0.00 0.00 86 1028.1
20260509001107 6 127 4.8 4.8 0.00 0.00 0.00 87 1028.2
20260509000606 6 117 3.2 3.2 0.00 0.00 0.00 86 1028.0
20260508235600 7 116 3.2 3.2 0.00 0.00 0.00 86 1028.0
20260508235056 6 131 4.8 4.8 0.00 0.00 0.00 87 1028.1
20260508234553 6 134 4.8 4.8 0.00 0.00 0.00 89 1028.0
20260508234050 6 131 0.0 0.0 0.00 0.00 0.00 90 1028.1
20260508233549 6 132 0.0 0.0 0.00 0.00 0.00 90 1028.1
20260508233046 6 129 0.0 0.0 0.00 0.00 0.00 91 1028.1
20260508232543 6 122 0.0 0.0 0.00 0.00 0.00 91 1028.1
20260508232040 6 119 0.0 0.0 0.00 0.00 0.00 92 1027.8
20260508231538 6 115 0.0 0.0 0.00 0.00 0.00 92 1028.1
20260508231035 6 107 0.0 0.0 0.00 0.00 0.00 92 1028.1
20260508230531 6 108 0.0 0.0 0.00 0.00 0.00 92 1028.1
20260508230028 6 110 0.0 1.6 0.00 0.00 0.00 92 1027.9
20260508225525 6 125 3.2 3.2 0.00 0.00 0.00 91 1027.9
20260508225022 6 123 3.2 3.2 0.00 0.00 0.00 91 1028.1
20260508224520 6 122 1.6 1.6 0.00 0.00 0.00 91 1028.1
20260508224017 6 119 3.2 3.2 0.00 0.00 0.00 90 1028.0
20260508223515 6 138 3.2 3.2 0.00 0.00 0.00 89 1028.2
20260508223012 6 115 1.6 1.6 0.00 0.00 0.00 87 1027.8
20260508222509 7 115 1.6 3.2 0.00 0.00 0.00 84 1028.0
20260508222005 8 129 1.6 3.2 0.00 0.00 0.00 81 1027.8
20260508221502 8 129 1.6 1.6 0.00 0.00 0.00 81 1027.8
20260508220958 8 130 1.6 3.2 0.00 0.00 0.00 80 1027.7
20260508220454 8 124 3.2 3.2 0.00 0.00 0.00 79 1027.7
20260508215950 8 117 1.6 1.6 0.00 0.00 0.00 79 1027.9
20260508215448 9 126 1.6 3.2 0.00 0.00 0.00 78 1027.8
20260508214944 8 122 1.6 1.6 0.00 0.00 0.00 79 1028.0
20260508214442 8 132 3.2 3.2 0.00 0.00 0.00 79 1028.0
20260508213938 9 150 3.2 3.2 0.00 0.00 0.00 79 1028.0
20260508213436 8 143 3.2 3.2 0.00 0.00 0.00 79 1028.1
20260508212931 8 138 3.2 3.2 0.00 0.00 0.00 79 1028.1
20260508212428 8 124 1.6 3.2 0.00 0.00 0.00 79 1028.1
20260508211924 8 127 1.6 3.2 0.00 0.00 0.00 80 1028.0
20260508211420 8 132 3.2 3.2 0.00 0.00 0.00 79 1028.5
20260508210917 8 137 1.6 3.2 0.00 0.00 0.00 79 1028.3
20260508210414 8 138 3.2 3.2 0.00 0.00 0.00 79 1028.0
20260508205910 9 130 3.2 3.2 0.00 0.00 0.00 79 1028.2
20260508205407 8 132 3.2 3.2 0.00 0.00 0.00 79 1028.3
20260508204903 8 125 3.2 3.2 0.00 0.00 0.00 80 1028.5
20260508204400 8 130 3.2 3.2 0.00 0.00 0.00 80 1028.3
20260508203856 8 104 1.6 3.2 0.00 0.00 0.00 81 1028.2
20260508203352 8 136 3.2 3.2 0.00 0.00 0.00 81 1028.3
20260508202848 8 107 1.6 1.6 0.00 0.00 0.00 80 1028.3
20260508202346 9 104 1.6 1.6 0.00 0.00 0.00 78 1028.2
20260508201843 10 111 1.6 1.6 0.00 0.00 0.00 77 1028.3
20260508201340 9 116 3.2 3.2 0.00 0.00 0.00 78 1028.5
20260508200836 8 108 1.6 3.2 0.00 0.00 0.00 82 1028.5
20260508200333 8 97 1.6 3.2 0.00 0.00 0.00 84 1028.3
20260508195828 8 61 3.2 3.2 0.00 0.00 0.00 82 1028.7
20260508195325 9 18 1.6 1.6 0.00 0.00 0.00 79 1028.5
20260508194822 10 357 1.6 1.6 0.00 0.00 0.00 77 1028.5
20260508194319 10 347 0.0 0.0 0.00 0.00 0.00 75 1028.5
20260508193810 10 347 1.6 1.6 0.00 0.00 0.00 73 1028.6
20260508193307 11 341 0.0 0.0 0.00 0.00 0.00 71 1028.3
20260508192803 11 334 0.0 0.0 0.00 0.00 0.00 71 1028.5
20260508192300 11 333 0.0 0.0 0.00 0.00 0.00 70 1028.3
20260508191757 11 334 0.0 0.0 0.00 0.00 0.00 70 1028.3
20260508191254 11 334 0.0 0.0 0.00 0.00 0.00 71 1028.3
20260508190752 10 334 0.0 0.0 0.00 0.00 0.00 71 1028.6
20260508190247 11 322 0.0 0.0 0.00 0.00 0.00 70 1028.2